DMSP 5D-2 F11 DEB, 28309

Orbit data source: Space-Track

DMSP 5D-2 F11 DEB, 28309 is space debris in SSO originally from a launch on Thu, 28 Nov 1991 UTC launched from the Air Force Western Test Range (AFWTR). Debris objects in space refer to the collection of defunct objects orbiting the Earth. Examples of debris include non-operational satellites, rocket bodies, and fragments generated from explosions, collisions, or faulty payload assembly.

Loading next visibility...
Identifier
28309, 1991-082W
Orbit
SSO
Country
Flag of USUS
Related business
Manufacturer
Unknown
Mission
Spacecraft
Bus & Motor
Unknown
Mass
Unknown
Launch date (UTC)
1991-11-28 (34 years ago)
Launch vehicle
Unknown
Launch site
Air Force Western Test Range (AFWTR)
Object type
Payload
Rocket body
Debris
Shape & HBR
Unknown shape, 0.2 m
Radar Cross Section
Small (<0.1 m²)

Expand to show TLE details & history
Last TLE update: 13 hours ago

TLE from 13 hours ago
0 DMSP 5D-2 F11 DEB
1 28309U 91082W   26120.99603598  .00000118  00000-0  72486-4 0  9993
2 28309  98.7089 143.8061 0015292  30.3215  29.4506 14.22663920142830
Epoch: 2026-04-30T23:54Z
TLE epoch observation values (Epoch: 2026-04-30T23:54:17.508Z)
Latitude
58.83757°
Longitude
-88.29518°
Altitude
816.702 km
Speed
7.455 km/s
True Right ascension
08h 36m 50s
True Declination
58° 41' 11"
Sunlit
Object was in daylight at epoch
Visualization orbit readout
Latitude
Unknown
Longitude
Unknown
Altitude
Unknown
Speed
Unknown
Apparent Right ascension
Unknown
Apparent Declination
Unknown
Sunlit
N/A
Visualization observer readout
Local Sidereal Time
20:53:22
Azimuth
Unknown
Elevation
Unknown
Doppler factor
Unknown
Orbital elements
Apogee altitude
824.51 km
Perigee altitude
802.515 km
Semi-major axis
7,191.65 km
Eccentricity
0.00153
Inclination
98.7089°
RAAN
143.8061°
Arg. of periapsis
30.3215°
True anomaly
29.5369°
Mean anomaly
29.4506°
Eccentric anomaly
29.49374°
Mean motion
3.55877 °/min
Orbital period
101.16 mins
BSTAR
0.000072486
Loading maneuver chart data...
Computing Atmospheric mass density...

Documentation

Showing up to 5 results
|